Regional Weather Roundup
Issued by NWS

Home | Current Version | Previous Version | Graphics & Text | Print | Product List | Glossary On
Versions: 1 2 3 4 5 6 7 8 9 10 11 12 13 14 15 16 17 18 19 20 21 22 23 24 25 26 27 28 29 30 31 32 33 34 35 36 37 38 39 40 41 42 43 44 45 46 47 48 49 50
000
ASUS43 KTOP 281808
RWRKS

WEATHER ROUNDUP FOR KANSAS
NATIONAL WEATHER SERVICE GOODLAND KS
100 PM CDT THU APR 28 2016

NOTE:  "FAIR" INDICATES FEW OR NO CLOUDS BELOW 12,000 FEET WITH NO
SIGNIFICANT WEATHER AND/OR OBSTRUCTIONS TO VISIBILITY.

KSZ001>006-013>018-027>032-041>047-281900-
NORTHWEST KANSAS

CITY           SKY/WX    TMP DP  RH WIND       PRES   REMARKS
GOODLAND       CLOUDY    44  29  55 VRB7      30.02R
6HR MIN TEMP:  36; 6HR MAX TEMP:  47;

HAYS           CLOUDY    48  32  53 N12       30.02S
HILL CITY      CLOUDY    51  35  54 N9        30.02S
6HR MIN TEMP:  38; 6HR MAX TEMP:  51;

RUSSELL        CLOUDY    51  36  56 N12       29.99F
6HR MIN TEMP:  40; 6HR MAX TEMP:  52;

$$

KSZ061>065-074>080-084>089-281900-
SOUTHWEST KANSAS

CITY           SKY/WX    TMP DP  RH WIND       PRES   REMARKS
DODGE CITY     MOSUNNY   53  33  46 N12       30.00F
6HR MIN TEMP:  40; 6HR MAX TEMP:  54;

ELKHART          N/A     53  32  45 NE6         N/A
GARDEN CITY    CLOUDY    50  33  52 NE13      29.99F
6HR MIN TEMP:  38; 6HR MAX TEMP:  50;

GREAT BEND     PTSUNNY   54  36  50 N13       30.01S
LIBERAL        SUNNY     57  36  44 E9G17     29.98S
PRATT          MOSUNNY   53  32  44 NE10      30.00S
6HR MIN TEMP:  41; 6HR MAX TEMP:  54;

$$

KSZ066>073-081>083-090>101-281900-
SOUTHEAST KANSAS

CITY           SKY/WX    TMP DP  RH WIND       PRES   REMARKS
CHANUTE        SUNNY     60  43  53 NW8       29.97S
6HR MIN TEMP:  48; 6HR MAX TEMP:  61;

COFFEYVILLE    CLOUDY    61  41  47 CALM      29.98S
6HR MIN TEMP:  48; 6HR MAX TEMP:  63;

HUTCHINSON     PTSUNNY   59  37  44 N8        30.00S
6HR MIN TEMP:  45; 6HR MAX TEMP:  59;

MEDICINE LODGE   N/A     63  37  38 NE10      29.98F
NEWTON         CLOUDY    57  39  51 N12       30.01S
PARSONS        PTSUNNY   63  44  50 VRB6      29.99S
6HR MIN TEMP:  47; 6HR MAX TEMP:  63;

WICHITA INTL   MOSUNNY   60  42  51 N10       29.99S
6HR MIN TEMP:  47; 6HR MAX TEMP:  60;

WICHITA JABRA  PTSUNNY   58  41  53 N8        29.99R
6HR MIN TEMP:  45; 6HR MAX TEMP:  58;

WICHITA MCCONL PTSUNNY   58  40  52 N12       29.99S
WINFIELD       CLOUDY    60  41  49 N8        30.00S
6HR MIN TEMP:  45; 6HR MAX TEMP:  60;

$$

KSZ007>012-019>026-033>040-048>060-102>105-281900-
NORTHEAST KANSAS

CITY           SKY/WX    TMP DP  RH WIND       PRES   REMARKS
CONCORDIA      CLOUDY    51  42  71 NW14      30.00S
6HR MIN TEMP:  37; 6HR MAX TEMP:  51;

EMPORIA        MOSUNNY   56  43  61 NW9       29.98R
6HR MIN TEMP:  43; 6HR MAX TEMP:  57;

LAWRENCE       MOSUNNY   58  47  66 NW16      29.96R
6HR MIN TEMP:  47; 6HR MAX TEMP:  59;

MANHATTAN      MOSUNNY   56  42  59 N8        29.99R
6HR MIN TEMP:  43; 6HR MAX TEMP:  57;

MARYSVILLE     CLOUDY    50  43  76 NW9       29.98R
OLATHE IND     MOSUNNY   58  47  66 W10       29.95F
6HR MIN TEMP:  45; 6HR MAX TEMP:  58;

OLATHE EXE     MOSUNNY   57  46  66 W9G20     29.95S
6HR MIN TEMP:  44; 6HR MAX TEMP:  57;

SALINA         CLOUDY    57  42  57 NW13      30.00R
6HR MIN TEMP:  43; 6HR MAX TEMP:  57;

TOPEKA BILLARD CLOUDY    57  45  64 NW15G21   29.97S
6HR MIN TEMP:  46; 6HR MAX TEMP:  57;

TOPEKA FORBES  MOSUNNY   57  45  64 W14       29.96S
6HR MIN TEMP:  46; 6HR MAX TEMP:  58;

$$




USA.gov is the U.S. government's official web portal to all federal, state and local government web resources and services.